• In Czech Republic
  • List of Countries
  • For 7 days
  • Water Temperature
  • Satellite Maps
  • Weather Map
  • Weather Widgets
  • user-avatar
    Login

    Hourly Weather Aqtobe

    Today, 22 January, Monday

    Time Temperature Precipitation Wind Pressure Humidity
    00:00 -20°C° 0 mm 9 mps 751 mmHg 84%
    01:00 -20°C° 0 mm 9 mps 751 mmHg 83%
    02:00 -20°C° 0 mm 9 mps 751 mmHg 83%
    03:00 -20°C° 0 mm 9 mps 751 mmHg 83%
    04:00 -22°C° 0 mm 12 mps 751 mmHg 82%
    05:00 -22°C° 0 mm 11 mps 751 mmHg 83%
    06:00 -22°C° 0 mm 10 mps 751 mmHg 84%
    07:00 -21°C° 0 mm 9 mps 751 mmHg 85%
    08:00 -21°C° 0 mm 9 mps 751 mmHg 85%
    09:00 -21°C° 0 mm 9 mps 751 mmHg 86%
    10:00 -21°C° 0 mm 9 mps 751 mmHg 86%
    11:00 -21°C° 0 mm 9 mps 751 mmHg 87%
    12:00 -20°C° 0 mm 9 mps 751 mmHg 87%
    13:00 -20°C° 0 mm 9 mps 751 mmHg 88%
    14:00 -20°C° 0 mm 9 mps 751 mmHg 88%
    15:00 -21°C° 0 mm 9 mps 751 mmHg 88%
    16:00 -26°C° 0 mm 11 mps 752 mmHg 83%
    17:00 -25°C° 0 mm 10 mps 752 mmHg 84%
    18:00 -25°C° 0 mm 10 mps 752 mmHg 86%
    19:00 -25°C° 0 mm 9 mps 752 mmHg 87%
    20:00 -25°C° 0 mm 9 mps 752 mmHg 87%
    21:00 -25°C° 0 mm 9 mps 752 mmHg 86%
    22:00 -25°C° 0 mm 9 mps 752 mmHg 86%
    23:00 -25°C° 0 mm 9 mps 752 mmHg 86%

    Tomorrow, 23 January, Tuesday

    Time Temperature Precipitation Wind Pressure Humidity
    00:00 -25°C° 0 mm 9 mps 752 mmHg 85%
    01:00 -25°C° 0 mm 10 mps 752 mmHg 85%
    02:00 -25°C° 0 mm 10 mps 752 mmHg 84%
    03:00 -25°C° 0 mm 10 mps 752 mmHg 84%
    04:00 -25°C° 0 mm 10 mps 752 mmHg 83%
    05:00 -25°C° 0 mm 10 mps 752 mmHg 82%
    06:00 -25°C° 0 mm 10 mps 752 mmHg 81%
    07:00 -26°C° 0 mm 11 mps 752 mmHg 80%
    08:00 -24°C° 0 mm 11 mps 752 mmHg 79%
    09:00 -24°C° 0 mm 11 mps 752 mmHg 77%
    10:00 -23°C° 0 mm 11 mps 752 mmHg 76%
    11:00 -23°C° 0 mm 11 mps 751 mmHg 75%
    12:00 -22°C° 0 mm 11 mps 751 mmHg 75%
    13:00 -21°C° 0 mm 12 mps 751 mmHg 74%
    14:00 -21°C° 0 mm 12 mps 751 mmHg 74%
    15:00 -21°C° 0 mm 12 mps 751 mmHg 74%
    16:00 -21°C° 0 mm 12 mps 751 mmHg 74%
    17:00 -21°C° 0 mm 12 mps 751 mmHg 74%
    18:00 -21°C° 0 mm 12 mps 751 mmHg 74%
    19:00 -21°C° 0 mm 12 mps 751 mmHg 74%
    20:00 -21°C° 0 mm 12 mps 751 mmHg 73%
    21:00 -21°C° 0 mm 12 mps 751 mmHg 72%
    22:00 -21°C° 0 mm 12 mps 750 mmHg 72%
    23:00 -21°C° 0 mm 12 mps 750 mmHg 71%

    Day after tomorrow, 24 January, Wednesday

    Time Temperature Precipitation Wind Pressure Humidity
    00:00 -21°C° 0 mm 12 mps 750 mmHg 71%
    01:00 -21°C° 0 mm 12 mps 750 mmHg 70%
    02:00 -21°C° 0 mm 11 mps 751 mmHg 70%
    03:00 -21°C° 0 mm 11 mps 751 mmHg 70%
    04:00 -22°C° 0 mm 11 mps 751 mmHg 70%
    05:00 -22°C° 0 mm 11 mps 751 mmHg 69%
    06:00 -22°C° 0 mm 11 mps 751 mmHg 69%
    07:00 -22°C° 0 mm 11 mps 751 mmHg 68%
    08:00 -21°C° 0 mm 11 mps 751 mmHg 68%
    09:00 -21°C° 0 mm 11 mps 751 mmHg 68%
    10:00 -21°C° 0 mm 11 mps 752 mmHg 67%
    11:00 -19°C° 0 mm 11 mps 752 mmHg 68%
    12:00 -19°C° 0 mm 11 mps 752 mmHg 68%
    13:00 -18°C° 0 mm 11 mps 752 mmHg 69%
    14:00 -18°C° 0 mm 10 mps 752 mmHg 70%
    15:00 -19°C° 0 mm 10 mps 752 mmHg 71%
    16:00 -19°C° 0 mm 10 mps 752 mmHg 72%
    17:00 -20°C° 0 mm 9 mps 752 mmHg 73%
    18:00 -20°C° 0 mm 9 mps 753 mmHg 74%
    19:00 -21°C° 0 mm 9 mps 753 mmHg 76%
    20:00 -21°C° 0 mm 9 mps 753 mmHg 77%
    21:00 -21°C° 0 mm 8 mps 753 mmHg 78%
    22:00 -21°C° 0 mm 8 mps 753 mmHg 79%
    23:00 -22°C° 0 mm 8 mps 753 mmHg 80%

    25 January, Thursday

    Time Temperature Precipitation Wind Pressure Humidity
    00:00 -21°C° 0 mm 7 mps 754 mmHg 80%
    01:00 -21°C° 0 mm 7 mps 754 mmHg 81%
    02:00 -21°C° 0 mm 7 mps 754 mmHg 82%
    03:00 -23°C° 0 mm 7 mps 754 mmHg 82%
    04:00 -23°C° 0 mm 7 mps 754 mmHg 83%
    05:00 -23°C° 0 mm 7 mps 754 mmHg 83%
    06:00 -24°C° 0 mm 7 mps 755 mmHg 83%
    07:00 -24°C° 0 mm 7 mps 755 mmHg 83%
    08:00 -24°C° 0 mm 7 mps 755 mmHg 82%
    09:00 -23°C° 0 mm 7 mps 755 mmHg 81%
    10:00 -23°C° 0 mm 7 mps 756 mmHg 81%
    11:00 -21°C° 0 mm 7 mps 756 mmHg 80%
    12:00 -20°C° 0 mm 7 mps 756 mmHg 79%
    13:00 -20°C° 0 mm 7 mps 756 mmHg 78%
    14:00 -20°C° 0 mm 7 mps 756 mmHg 78%
    15:00 -20°C° 0 mm 7 mps 756 mmHg 79%
    16:00 -20°C° 0 mm 7 mps 756 mmHg 80%
    17:00 -21°C° 0 mm 7 mps 756 mmHg 81%
    18:00 -21°C° 0 mm 7 mps 757 mmHg 82%
    19:00 -22°C° 0 mm 6 mps 757 mmHg 83%
    20:00 -22°C° 0 mm 6 mps 757 mmHg 83%
    21:00 -23°C° 0 mm 7 mps 757 mmHg 83%
    22:00 -23°C° 0 mm 7 mps 758 mmHg 84%
    23:00 -23°C° 0 mm 6 mps 758 mmHg 84%

    26 January, Friday

    Time Temperature Precipitation Wind Pressure Humidity
    00:00 -23°C° 0 mm 6 mps 758 mmHg 84%
    01:00 -23°C° 0 mm 6 mps 759 mmHg 84%
    02:00 -23°C° 0 mm 6 mps 759 mmHg 83%
    03:00 -23°C° 0 mm 6 mps 759 mmHg 82%
    04:00 -24°C° 0 mm 6 mps 759 mmHg 81%
    05:00 -25°C° 0 mm 7 mps 759 mmHg 80%
    06:00 -25°C° 0 mm 7 mps 759 mmHg 79%
    07:00 -25°C° 0 mm 7 mps 760 mmHg 78%
    08:00 -25°C° 0 mm 7 mps 760 mmHg 77%
    09:00 -25°C° 0 mm 7 mps 760 mmHg 76%
    10:00 -24°C° 0 mm 7 mps 761 mmHg 75%
    11:00 -24°C° 0 mm 7 mps 761 mmHg 75%
    12:00 -23°C° 0 mm 7 mps 761 mmHg 75%
    13:00 -23°C° 0 mm 7 mps 761 mmHg 75%
    14:00 -23°C° 0 mm 7 mps 761 mmHg 75%
    15:00 -23°C° 0 mm 7 mps 761 mmHg 76%
    16:00 -24°C° 0 mm 7 mps 761 mmHg 77%
    17:00 -24°C° 0 mm 7 mps 762 mmHg 77%
    18:00 -25°C° 0 mm 7 mps 762 mmHg 76%
    19:00 -26°C° 0 mm 7 mps 762 mmHg 76%
    20:00 -26°C° 0 mm 7 mps 762 mmHg 75%
    21:00 -26°C° 0 mm 7 mps 763 mmHg 75%
    22:00 -27°C° 0 mm 7 mps 763 mmHg 74%
    23:00 -27°C° 0 mm 6 mps 763 mmHg 75%

    27 January, Saturday

    Time Temperature Precipitation Wind Pressure Humidity
    00:00 -27°C° 0 mm 6 mps 763 mmHg 75%
    01:00 -27°C° 0 mm 6 mps 763 mmHg 76%
    02:00 -28°C° 0 mm 6 mps 763 mmHg 76%
    03:00 -28°C° 0 mm 6 mps 764 mmHg 76%
    04:00 -28°C° 0 mm 6 mps 764 mmHg 76%
    05:00 -28°C° 0 mm 6 mps 764 mmHg 75%
    06:00 -27°C° 0 mm 5 mps 764 mmHg 74%
    07:00 -27°C° 0 mm 5 mps 764 mmHg 73%
    08:00 -28°C° 0 mm 6 mps 764 mmHg 72%
    09:00 -27°C° 0 mm 6 mps 765 mmHg 71%
    10:00 -26°C° 0 mm 6 mps 765 mmHg 70%
    11:00 -24°C° 0 mm 6 mps 765 mmHg 70%
    12:00 -24°C° 0 mm 6 mps 765 mmHg 71%
    13:00 -23°C° 0 mm 6 mps 765 mmHg 71%
    14:00 -22°C° 0 mm 5 mps 765 mmHg 72%
    15:00 -22°C° 0 mm 5 mps 765 mmHg 73%
    16:00 -24°C° 0 mm 5 mps 765 mmHg 74%
    17:00 -24°C° 0 mm 5 mps 765 mmHg 73%
    18:00 -25°C° 0 mm 5 mps 765 mmHg 72%
    19:00 -26°C° 0 mm 5 mps 765 mmHg 71%
    20:00 -26°C° 0 mm 5 mps 765 mmHg 70%
    21:00 -26°C° 0 mm 5 mps 765 mmHg 69%
    22:00 -26°C° 0 mm 5 mps 765 mmHg 69%
    23:00 -26°C° 0 mm 5 mps 765 mmHg 69%
    Show more